Simultaneous Nadir Overpasses (SNOs) Predictions

Prediction of SNOs between GOES-17 and TERRA Satellite Orbit:

Table of predicted SNOs for the next 14.0 days since TLE Epoch: 11/14/2025
Index Date Time (GOES-17) GOES-17 Lat,Lon TERRA Lat,Lon Distance(km) Time Diff (sec)
1 11/15/2025 02:55:15 -0.36, -89.46 0.31, -86.17 373.62 80
2 11/15/2025 15:11:58 0.36, -89.53 0.63, -90.89 154.39 80
3 11/17/2025 14:55:06 0.36, -89.54 -0.35, -86.19 380.93 80
4 11/18/2025 03:11:56 -0.35, -89.47 -0.68, -90.93 166.35 80
5 11/20/2025 02:55:04 -0.36, -89.48 0.32, -86.23 369.29 80
6 11/20/2025 15:11:46 0.35, -89.55 0.64, -90.95 158.66 80
7 11/22/2025 14:54:52 0.37, -89.56 -0.30, -86.23 377.57 80
8 11/23/2025 03:11:42 -0.36, -89.49 -0.66, -90.99 169.40 80
9 11/25/2025 02:54:48 -0.37, -89.51 0.31, -86.27 367.27 80
10 11/25/2025 15:11:30 0.36, -89.58 0.62, -91.00 160.67 80
11 11/27/2025 14:54:35 0.37, -89.59 -0.33, -86.28 377.02 80
12 11/28/2025 03:11:25 -0.36, -89.53 -0.68, -91.02 169.38 80
